Toronto Pearson, Ontario

2:23 PM EDT on May 26, 2017 (GMT -0400)
Toronto-Pearson International

Weather History for CYYZ - September, 2013

Change the Weather History Date:

Sunday, September 22, 2013

  Actual Average Record
Temperature  
Mean Temperature 50 °F -  
Max Temperature 54 °F 60 °F 85 °F (2016)
Min Temperature 47 °F 41 °F 37 °F (1999)
Degree Days  
Heating Degree Days 14    
Moisture  
Dew Point 42 °F    
Average Humidity 71    
Maximum Humidity 87    
Minimum Humidity 53    
Precipitation  
Precipitation 0.00 in 0.09 in - ()
Sea Level Pressure  
Sea Level Pressure 29.93 in    
Wind  
Wind Speed 11 mph ()    
Max Wind Speed 21 mph    
Max Gust Speed 29 mph    
Visibility 15.0 miles    
Events      
Averages and records for this station are not official NWS values.
T = Trace of Precipitation, MM = Missing Value Source: Averaged Metar Reports

Daily Weather History Graph

Daily Weather History Graph

Search for Another Location

Airport or City:

Trip Planner

Search our weather history database for the weather conditions in past years. The results will help you decide how hot, cold, wet, or windy it might be!

Date:

Astronomy

Sep. 22, 2013 Rise Set
Actual Time 7:06 AM EDT 7:15 PM EDT
Civil Twilight 6:37 AM EDT 7:44 PM EDT
Nautical Twilight 6:03 AM EDT 8:17 PM EDT
Astronomical Twilight 5:29 AM EDT 8:51 PM EDT
Moon 8:56 PM EDT (9/22) 10:31 AM EDT (9/22)
Length of Visible Light 13h 06m
Length of Day
12h 09m
Waning Gibbous, 89% of the Moon is Illuminated
Sep 22
Waning Gibbous
Sep 26
Last Quarter
Oct 4
New
Oct 11
First Quarter
Oct 18
Full

Hourly Weather History & Observations

Time (EDT) Temp. Dew Point Humidity Pressure Visibility Wind Dir Wind Speed Gust Speed Precip Events Conditions
12:00 AM 50.0 °F 44.6 °F 82% 29.76 in 15.0 mi West 10.4 mph - N/A   Partly Cloudy
1:00 AM 50.0 °F 44.6 °F 82% 29.78 in 15.0 mi West 8.1 mph - N/A   Mostly Cloudy
2:00 AM 52 °F 45 °F 69% 29.79 in 15 mi NW 10.4 mph - -   Mostly Cloudy
2:00 AM 51.8 °F 44.6 °F 76% 29.79 in 15.0 mi NW 12.7 mph - N/A   Mostly Cloudy
3:00 AM 51.8 °F 44.6 °F 76% 29.79 in 15.0 mi NW 9.2 mph - N/A   Mostly Cloudy
4:00 AM 50.0 °F 44.6 °F 82% 29.81 in 15.0 mi NNW 11.5 mph - N/A   Mostly Cloudy
5:00 AM 48.2 °F 44.6 °F 87% 29.83 in 15.0 mi North 9.2 mph - N/A   Mostly Cloudy
6:00 AM 48.2 °F 42.8 °F 82% 29.85 in 15.0 mi NNW 13.8 mph - N/A   Mostly Cloudy
7:00 AM 48.2 °F 44.6 °F 87% 29.86 in 15.0 mi NW 8.1 mph - N/A   Partly Cloudy
8:00 AM 48 °F 43 °F 76% 29.89 in 15 mi NW 10.4 mph - -   Scattered Clouds
8:00 AM 48.2 °F 42.8 °F 82% 29.89 in 15.0 mi NW 11.5 mph - N/A   Partly Cloudy
9:00 AM 48.2 °F 42.8 °F 82% 29.90 in 15.0 mi NNW 10.4 mph - N/A   Mostly Cloudy
10:00 AM 48.2 °F 41.0 °F 76% 29.93 in 15.0 mi North 13.8 mph - N/A   Mostly Cloudy
11:00 AM 50.0 °F 42.8 °F 76% 29.95 in 15.0 mi North 12.7 mph - N/A   Mostly Cloudy
12:00 PM 50.0 °F 42.8 °F 76% 29.97 in 15.0 mi North 17.3 mph - N/A   Mostly Cloudy
1:00 PM 51.8 °F 42.8 °F 71% 29.97 in 15.0 mi NNW 17.3 mph 24.2 mph N/A   Mostly Cloudy
2:00 PM 52 °F 40 °F 55% 29.98 in 15 mi NNW 20.7 mph - -   Mostly Cloudy
2:00 PM 51.8 °F 41.0 °F 67% 29.98 in 15.0 mi NNW 18.4 mph 28.8 mph N/A   Mostly Cloudy
3:00 PM 51.8 °F 37.4 °F 58% 29.97 in 15.0 mi NNW 15.0 mph 21.9 mph N/A   Mostly Cloudy
4:00 PM 53.6 °F 39.2 °F 58% 29.97 in 15.0 mi WNW 13.8 mph - N/A   Mostly Cloudy
5:00 PM 53.6 °F 39.2 °F 58% 29.98 in 15.0 mi NNW 12.7 mph 19.6 mph N/A   Mostly Cloudy
6:00 PM 51.8 °F 37.4 °F 58% 30.01 in 15.0 mi North 16.1 mph 23.0 mph N/A   Mostly Cloudy
7:00 PM 51.8 °F 37.4 °F 58% 30.02 in 15.0 mi NNW 15.0 mph - N/A   Mostly Cloudy
8:00 PM 50 °F 38 °F 53% 30.04 in 15 mi NNW 9.2 mph - -   Mostly Cloudy
8:00 PM 50.0 °F 37.4 °F 62% 30.04 in 15.0 mi NNW 9.2 mph - N/A   Mostly Cloudy
9:00 PM 50.0 °F 39.2 °F 66% 30.06 in 15.0 mi NW 10.4 mph - N/A   Mostly Cloudy
10:00 PM 50.0 °F 39.2 °F 66% 30.07 in 15.0 mi NW 9.2 mph - N/A   Mostly Cloudy
11:00 PM 50.0 °F 39.2 °F 66% 30.07 in 15.0 mi NW 10.4 mph - N/A   Mostly Cloudy